Greenville Downtown, SC

9:53 AM EDT on April 24, 2018 (GMT -0400)
Greenville Downtown

Weather History for KGMU - October, 2014

Change the Weather History Date:

Saturday, October 25, 2014

  Actual Average Record
Temperature  
Mean Temperature 63 °F -  
Max Temperature 75 °F 67 °F 78 °F (2012)
Min Temperature 53 °F 49 °F 34 °F (2006)
Degree Days  
Heating Degree Days 2    
Growing Degree Days 13 (Base 50)    
Moisture  
Dew Point 40 °F    
Average Humidity 45    
Maximum Humidity 69    
Minimum Humidity 20    
Precipitation  
Precipitation 0.00 in - - ()
Sea Level Pressure  
Sea Level Pressure 30.00 in    
Wind  
Wind Speed 6 mph (NW)    
Max Wind Speed 9 mph    
Max Gust Speed -    
Visibility 10 miles    
Events      
Averages and records for this station are not official NWS values.
T = Trace of Precipitation, MM = Missing Value Source: NWS Daily Summary

Daily Weather History Graph

Daily Weather History Graph

Search for Another Location

Airport or City:

Astronomy

Oct. 25, 2014 Rise Set
Actual Time 7:43 AM EDT 6:42 PM EDT
Civil Twilight 7:17 AM EDT 7:08 PM EDT
Nautical Twilight 6:48 AM EDT 7:37 PM EDT
Astronomical Twilight 6:19 AM EDT 8:07 PM EDT
Moon 9:18 AM EDT (10/25) 8:08 PM EDT (10/25)
Length of Visible Light 11h 50m
Length of Day
10h 58m
Waxing Crescent, 3% of the Moon is Illuminated
Oct 25
Waxing Crescent
Oct 30
First Quarter
Nov 6
Full
Nov 14
Last Quarter
Nov 22
New

Hourly Weather History & Observations

Time (EDT) Temp. Dew Point Humidity Pressure Visibility Wind Dir Wind Speed Gust Speed Precip Events Conditions
12:53 AM 57.9 °F 36.0 °F 44% 30.02 in 10.0 mi NNW 6.9 mph - N/A   Clear
1:53 AM 55.9 °F 37.0 °F 49% 30.01 in 10.0 mi NNW 5.8 mph - N/A   Clear
2:53 AM 55.9 °F 37.0 °F 49% 30.01 in 10.0 mi North 5.8 mph - N/A   Clear
3:53 AM 53.1 °F 37.9 °F 57% 30.01 in 10.0 mi North 5.8 mph - N/A   Clear
4:53 AM 55.0 °F 39.0 °F 55% 30.00 in 10.0 mi North 8.1 mph - N/A   Clear
5:53 AM 55.9 °F 39.0 °F 53% 30.00 in 10.0 mi North 8.1 mph - N/A   Clear
6:53 AM 55.0 °F 37.9 °F 53% 30.03 in 10.0 mi NNW 4.6 mph - N/A   Clear
7:53 AM 54.0 °F 37.9 °F 55% 30.04 in 10.0 mi North 5.8 mph - N/A   Clear
8:53 AM 57.9 °F 39.0 °F 49% 30.05 in 10.0 mi North 6.9 mph - N/A   Clear
9:53 AM 62.1 °F 39.9 °F 44% 30.05 in 10.0 mi NNW 5.8 mph - N/A   Clear
10:53 AM 68.0 °F 35.1 °F 30% 30.05 in 10.0 mi Variable 3.5 mph - N/A   Clear
11:53 AM 69.1 °F 30.0 °F 23% 30.05 in 10.0 mi Variable 5.8 mph - N/A   Clear
12:53 PM 72.0 °F 28.9 °F 20% 30.02 in 10.0 mi Variable 4.6 mph - N/A   Clear
1:53 PM 73.0 °F 39.9 °F 30% 30.00 in 10.0 mi West 9.2 mph - N/A   Clear
2:53 PM 73.9 °F 43.0 °F 33% 29.97 in 10.0 mi WSW 9.2 mph - N/A   Clear
3:53 PM 73.9 °F 42.1 °F 32% 29.97 in 10.0 mi West 8.1 mph - N/A   Clear
4:53 PM 73.0 °F 39.9 °F 30% 29.96 in 10.0 mi SW 9.2 mph - N/A   Clear
5:53 PM 71.1 °F 43.0 °F 36% 29.97 in 10.0 mi WSW 6.9 mph - N/A   Clear
6:05 PM 71.1 °F 42.1 °F 35% 29.99 in 10.0 mi West 6.9 mph - N/A   Partly Cloudy
6:53 PM 66.0 °F 43.0 °F 43% 29.98 in 10.0 mi WSW 4.6 mph - N/A   Clear
7:53 PM 64.9 °F 46.0 °F 50% 29.98 in 10.0 mi Calm Calm - N/A   Clear
8:53 PM 63.0 °F 46.9 °F 56% 29.98 in 10.0 mi Calm Calm - N/A   Clear
9:53 PM 61.0 °F 46.9 °F 60% 29.98 in 10.0 mi WNW 4.6 mph - N/A   Clear
10:53 PM 61.0 °F 46.0 °F 58% 29.98 in 10.0 mi WNW 3.5 mph - N/A   Clear
11:53 PM 57.0 °F 46.9 °F 69% 29.97 in 10.0 mi Calm Calm - N/A   Clear